EW6329 Weather Reports


Display with metric or nautical units.
time (UTC)temp
F
wind
direction
speed
MPH
gust
MPH
rain 1hr
in
rain 24hr
in
rain mn
in
humidity
%
barometer
mb
20260902031522 82 318 0.0 0.0 0.00 0.00 0.00 73 1014.2
20260902030034 83 318 0.0 0.0 0.00 0.00 0.00 72 1014.1
20260902024549 83 317 0.0 0.0 0.00 0.00 0.00 71 1014.0
20260902023114 84 317 0.0 0.0 0.00 0.00 0.00 70 1013.8
20260902021516 85 317 0.0 0.0 0.00 0.00 0.00 67 1013.7
20260902020025 85 317 0.0 0.0 0.00 0.00 0.00 65 1013.7
20260902014540 86 317 0.0 0.0 0.00 0.00 0.00 64 1013.6
20260902013052 87 317 0.0 0.0 0.00 0.00 0.00 63 1013.5
20260902011603 87 317 0.0 0.0 0.00 0.00 0.00 61 1013.4
20260902010012 88 317 0.0 0.0 0.00 0.00 0.00 60 1013.3
20260902004527 89 317 0.0 0.0 0.00 0.00 0.00 59 1013.2
20260902003039 90 317 0.0 0.0 0.00 0.00 0.00 58 1013.1
20260902001552 90 317 0.0 0.0 0.00 0.00 0.00 58 1013.0
20260902000005 90 317 0.0 0.0 0.00 0.00 0.00 59 1013.1
20260901234515 90 317 0.0 0.0 0.00 0.00 0.00 59 1013.2
20260901233029 90 317 0.0 0.0 0.00 0.00 0.00 59 1013.3
20260901231542 91 317 0.0 0.0 0.00 0.00 0.00 57 1013.3
20260901230057 91 317 0.0 0.0 0.00 0.00 0.00 56 1013.4
20260901224505 91 317 0.0 2.0 0.00 0.00 0.00 56 1013.4
20260901223019 92 317 0.0 2.0 0.00 0.00 0.00 53 1013.3
20260901221542 92 317 0.0 2.0 0.00 0.00 0.00 55 1013.3
20260901220045 92 317 0.0 0.0 0.00 0.00 0.00 55 1013.4
20260901214559 94 317 0.0 2.0 0.00 0.00 0.00 49 1013.3
20260901213027 95 317 0.0 2.0 0.00 0.00 0.00 48 1013.3
20260901211535 95 317 0.0 2.0 0.00 0.00 0.00 45 1013.4
20260901210038 97 317 0.0 2.0 0.00 0.00 0.00 47 1013.5
20260901204548 96 317 0.0 2.0 0.00 0.00 0.00 49 1013.6
20260901203107 95 317 0.0 2.0 0.00 0.00 0.00 48 1013.8
20260901201511 94 317 0.0 1.0 0.00 0.00 0.00 50 1014.0
20260901200038 95 317 0.0 2.0 0.00 0.00 0.00 48 1014.1
20260901194538 92 317 0.0 0.0 0.00 0.00 0.00 54 1014.3
20260901193100 90 317 0.0 0.0 0.00 0.00 0.00 59 1014.4
20260901191500 92 317 0.0 0.0 0.00 0.00 0.00 55 1014.7
20260901190016 92 317 0.0 2.0 0.00 0.00 0.00 54 1014.8
20260901184533 94 317 0.0 2.0 0.00 0.00 0.00 52 1014.9
20260901183041 95 317 0.0 2.0 0.00 0.00 0.00 49 1015.2
20260901181552 95 317 0.0 2.0 0.00 0.00 0.00 50 1015.3
20260901180106 94 317 0.0 2.0 0.00 0.00 0.00 50 1015.4
20260901174514 93 317 1.0 3.0 0.00 0.00 0.00 51 1015.7
20260901173025 92 332 1.0 2.0 0.00 0.00 0.00 53 1015.9
20260901171538 92 333 0.0 2.0 0.00 0.00 0.00 55 1016.2
20260901170052 92 315 0.0 4.0 0.00 0.00 0.00 55 1016.3
20260901164604 91 319 1.0 4.0 0.00 0.00 0.00 57 1016.5
20260901163013 90 292 0.0 2.0 0.00 0.00 0.00 61 1016.6
20260901161531 89 292 0.0 2.0 0.00 0.00 0.00 60 1016.8
20260901160039 88 292 0.0 2.0 0.00 0.00 0.00 66 1016.7
20260901154553 87 292 0.0 2.0 0.00 0.00 0.00 69 1016.8
20260901153001 87 292 0.0 2.0 0.00 0.00 0.00 70 1016.9
20260901151516 86 292 0.0 2.0 0.00 0.00 0.00 72 1016.9
20260901150023 85 292 0.0 2.0 0.00 0.00 0.00 75 1016.9
20260901144535 83 292 0.0 2.0 0.00 0.00 0.00 78 1016.9
20260901143052 82 292 0.0 2.0 0.00 0.00 0.00 79 1016.9
20260901141600 79 292 0.0 2.0 0.00 0.00 0.00 85 1016.9
20260901140013 77 292 0.0 0.0 0.00 0.00 0.00 89 1017.0
20260901134520 76 293 0.0 0.0 0.00 0.00 0.00 90 1017.0
20260901133037 76 294 0.0 0.0 0.00 0.00 0.00 91 1017.0
20260901131550 75 294 0.0 0.0 0.00 0.00 0.00 91 1017.0
20260901130056 75 294 0.0 0.0 0.00 0.00 0.00 90 1017.0
20260901124507 74 294 0.0 0.0 0.00 0.00 0.00 89 1016.8
20260901123025 74 294 0.0 0.0 0.00 0.00 0.00 89 1016.7
20260901121536 74 294 0.0 0.0 0.00 0.00 0.00 89 1016.5
20260901120047 74 294 0.0 0.0 0.00 0.00 0.00 89 1016.4
20260901114558 74 294 0.0 0.0 0.00 0.00 0.00 88 1016.2
20260901113009 74 294 0.0 0.0 0.00 0.00 0.00 88 1015.9
20260901111519 75 294 0.0 0.0 0.00 0.00 0.00 87 1015.8
20260901110035 75 294 0.0 0.0 0.00 0.00 0.00 87 1015.7
20260901104545 75 294 0.0 0.0 0.00 0.00 0.00 86 1015.7
20260901103059 75 294 0.0 0.0 0.00 0.00 0.00 86 1015.6
20260901101509 75 294 0.0 0.0 0.00 0.00 0.00 86 1015.5
20260901100022 76 294 0.0 0.0 0.00 0.00 0.00 85 1015.3
20260901094532 76 294 0.0 0.0 0.00 0.00 0.00 86 1015.2
20260901093045 76 294 0.0 0.0 0.00 0.00 0.00 85 1015.2
20260901091609 76 294 0.0 0.0 0.00 0.00 0.00 85 1015.2
20260901090010 76 294 0.0 0.0 0.00 0.00 0.00 85 1015.2
20260901084522 76 294 0.0 0.0 0.00 0.00 0.00 85 1015.1
20260901083035 76 294 0.0 0.0 0.00 0.00 0.00 85 1015.0
20260901081549 76 294 0.0 0.0 0.00 0.00 0.00 85 1015.0
20260901074511 77 294 0.0 0.0 0.00 0.00 0.00 84 1015.0
20260901073025 77 294 0.0 0.0 0.00 0.00 0.00 83 1015.0
20260901071543 77 294 0.0 0.0 0.00 0.00 0.00 83 1014.8
20260901070051 77 294 0.0 0.0 0.00 0.00 0.00 83 1014.8
20260901064604 77 294 0.0 0.0 0.00 0.00 0.00 82 1014.8
20260901063014 78 294 0.0 0.0 0.00 0.00 0.00 82 1014.9
20260901061525 78 294 0.0 0.0 0.00 0.00 0.00 80 1014.9
20260901060039 78 294 0.0 0.0 0.00 0.00 0.00 80 1014.9
20260901054654 79 294 0.0 0.0 0.00 0.00 0.00 79 1015.0
20260901053102 79 294 0.0 0.0 0.00 0.00 0.00 79 1015.0
20260901051511 79 294 0.0 0.0 0.00 0.00 0.00 78 1014.9
20260901050025 79 294 0.0 0.0 0.00 0.00 0.00 78 1014.9
20260901044544 80 294 0.0 0.0 0.00 0.00 0.00 77 1015.0
20260901043051 80 294 0.0 0.0 0.00 0.00 0.00 77 1014.9
20260901041501 80 294 0.0 0.0 0.00 0.00 0.00 76 1014.8
20260901040015 81 294 0.0 2.0 0.00 0.00 0.00 75 1014.8
20260901034532 81 294 0.0 0.0 0.00 0.00 0.00 73 1014.7
20260901033043 81 294 0.0 0.0 0.00 0.00 0.00 73 1014.7